[[{"header":{"parameterUnit":"m.s-1","parameterCategory":1,"la1":30.2991,"la2":30.254,"lo1":-89.0895,"lo2":-89.0444,"dy":0.0017,"dx":0.0017,"nx":28,"ny":28,"refTime":"2025-09-08T03:00:00:Z","depth":0,"parameterNumber":2,"parameterNumberName":"U-component_of_WINDS"},"data":[0,0,0,0,0,0,0,0,0,0,0,0,0,0,0,0,0,0,0,0,0,0,0,0,0,0,0,0,0,0,0,0,0,0,0,0,0,0,0,0,0,0,0,0,0,0,0,0,0,0,0,0,0,0,0,0,0,0,-2.3402,-2.3402,0,-2.3356,-2.3355,-2.3355,-2.3244,-2.3242,-2.3239,-2.3237,-2.3193,-2.3194,-2.3195,0,0,0,0,0,0,0,0,0,0,0,0,0,-2.34,-2.34,-2.3402,-2.3402,-2.3401,-2.3356,-2.3355,-2.3355,-2.3244,-2.3242,-2.3239,-2.3236,-2.3193,-2.3194,-2.3195,0,0,0,0,0,0,0,0,0,0,0,0,0,-2.3382,-2.3401,-2.3403,-2.3341,-2.3335,-2.3356,-2.3355,-2.3354,-2.3245,-2.3242,-2.3238,-2.3235,-2.3193,-2.3194,-2.3195,-2.3274,0,0,-2.32,-2.3201,0,0,0,0,0,0,0,0,-2.3383,-2.3382,-2.335,-2.3345,-2.3338,-2.3302,-2.3338,-2.3328,-2.3246,-2.3279,-2.3237,-2.3233,-2.3233,-2.3231,-2.323,-2.3272,-2.327,-2.32,-2.3201,-2.3202,-2.3202,0,0,0,0,0,0,0,-2.3385,-2.3384,-2.3384,-2.335,-2.3343,-2.3317,-2.331,-2.3336,-2.3276,-2.3276,-2.3268,-2.3264,-2.3229,-2.3228,-2.3228,-2.327,-2.32,-2.3201,-2.3202,-2.3203,-2.3376,-2.3379,0,0,0,0,0,0,-2.3394,-2.3385,-2.3386,-2.3383,-2.3353,-2.3319,-2.3312,-2.3317,-2.3275,-2.3266,-2.3267,-2.3259,-2.3228,-2.3226,-2.3226,-2.3316,-2.3202,-2.3203,-2.3204,-2.3372,-2.3377,-2.3381,0,0,0,0,0,0,-2.3395,-2.3395,-2.3387,-2.3382,-2.3379,-2.3323,-2.333,-2.3318,-2.3318,-2.3268,-2.3258,-2.3277,-2.3225,-2.3224,-2.3263,-2.3313,-2.3204,-2.3205,-2.3368,-2.3374,-2.3379,-2.3497,0,0,0,0,0,0,-2.3395,-2.3396,-2.3424,-2.3383,-2.338,-2.3425,-2.3333,-2.332,-2.332,-2.3309,-2.3275,-2.3266,-2.3222,-2.3261,-2.3265,-2.3313,-2.3206,-2.3363,-2.337,-2.3377,-2.3488,-2.3506,-2.3521,0,0,0,0,0,-2.3395,-2.346,-2.3426,-2.3427,-2.3414,-2.3428,-2.3426,-2.3372,-2.3325,-2.3353,-2.3322,-2.3267,-2.3307,-2.3266,-2.3269,-2.3319,-2.336,-2.3368,-2.3376,-2.3481,-2.3502,-2.352,0,0,0,0,0,0,-2.351,-2.3454,-2.3416,-2.3469,-2.3454,-2.3409,-2.3443,-2.3396,-2.3395,-2.3385,-2.332,-2.3313,-2.3362,-2.3344,-2.33,-2.3393,-2.3325,-2.3334,-2.3403,-2.3423,-2.3439,-2.3443,-2.3207,0,0,0,0,0,-2.3541,-2.3556,-2.3506,-2.3558,-2.3553,-2.35,-2.3504,-2.3464,-2.3446,-2.344,-2.3411,-2.3397,-2.3406,-2.3413,-2.3419,-2.3485,-2.3477,-2.3521,-2.3537,-2.355,-2.356,-2.3594,-2.3614,-2.3408,-2.3408,-2.3408,0,0,-2.3606,-2.3577,-2.3591,-2.3581,-2.3564,-2.3583,-2.3495,-2.3518,-2.3531,-2.3443,-2.3478,-2.3457,-2.3437,-2.3491,-2.3513,-2.3477,-2.3614,-2.3561,-2.3572,-2.3574,-2.3605,-2.3625,-2.3642,-2.3414,-2.3413,-2.3412,0,0,-2.3734,-2.3713,-2.3755,-2.374,-2.3716,-2.368,-2.3691,-2.3653,-2.3635,-2.3669,-2.3604,-2.362,-2.3636,-2.3625,-2.3622,-2.3747,-2.3697,-2.3751,-2.3836,-2.3871,-2.3887,-2.3901,-2.3947,-2.3964,-2.376,-2.376,-2.376,0,-2.3819,-2.3842,-2.3782,-2.3809,-2.3807,-2.3727,-2.377,-2.3759,-2.3739,-2.374,-2.37,-2.372,-2.3701,-2.3751,-2.3782,-2.3781,-2.3792,-2.3754,-2.3889,-2.3902,-2.3915,-2.3958,-2.3975,-2.3767,-2.3766,-2.3765,-2.3764,0,-2.3947,-2.3965,-2.4001,-2.3983,-2.3985,-2.402,-2.3966,-2.3976,-2.3936,-2.3906,-2.3942,-2.3917,-2.3916,-2.3925,-2.3887,-2.3971,-2.3949,-2.39,-2.383,-2.3942,-2.3981,-2.3997,-2.3776,-2.3774,-2.3772,-2.377,0,0,-2.4146,-2.4094,-2.4109,-2.41,-2.4068,-2.4081,-2.4113,-2.4111,-2.4121,-2.411,-2.4136,-2.4153,-2.4107,-2.4104,-2.4063,-2.4094,-2.4196,-2.4041,-2.404,-2.4072,-2.4289,-2.4327,-2.4347,-2.4163,-2.4166,-2.4168,-2.4291,0,-2.4267,-2.4317,-2.4265,-2.4326,-2.4342,-2.4267,-2.4295,-2.4279,-2.4252,-2.4263,-2.4232,-2.4246,-2.4184,-2.4181,-2.4208,-2.4178,-2.4239,-2.4168,-2.4188,-2.419,-2.4196,-2.4367,-2.4407,-2.4524,-2.4306,-2.4308,-2.431,0,-2.4415,-2.441,-2.4473,-2.4438,-2.4443,-2.4468,-2.4463,-2.4474,-2.4456,-2.4433,-2.443,-2.4381,-2.4411,-2.4342,-2.4384,-2.4337,-2.4342,-2.4329,-2.4332,-2.4333,-2.4257,-2.4373,-2.4559,-2.4578,-2.4333,-2.4331,-2.433,0,-2.4555,-2.4564,-2.4603,-2.4598,-2.4557,-2.4578,-2.4562,-2.4539,-2.4542,-2.4539,-2.454,-2.454,-2.4541,-2.4543,-2.4496,-2.445,-2.4545,-2.4471,-2.4529,-2.453,-2.4552,-2.4552,-2.4744,-2.4554,-2.4554,-2.4554,-2.4553,0,-2.4696,-2.4738,-2.4666,-2.469,-2.4735,-2.4675,-2.4722,-2.4698,-2.4679,-2.4699,-2.4634,-2.4654,-2.4591,-2.4604,-2.4568,-2.4609,-2.461,-2.4594,-2.4584,-2.46,-2.4603,-2.4603,-2.4595,-2.4558,-2.4557,-2.4556,-2.4556,0,-2.486,-2.4813,-2.4851,-2.481,-2.48,-2.4836,-2.4801,-2.4823,-2.4791,-2.4816,-2.4819,-2.477,-2.4783,-2.4736,-2.4742,-2.4717,-2.4778,-2.4754,-2.4784,-2.4777,-2.4838,-2.4833,-2.5037,-2.5062,-2.4856,-2.4858,-2.486,0,-2.4954,-2.4984,-2.4946,-2.4954,-2.4941,-2.4955,-2.4957,-2.49,-2.4905,-2.4887,-2.4911,-2.4919,-2.4921,-2.4946,-2.4912,-2.4916,-2.4893,-2.4964,-2.4893,-2.4909,-2.4895,-2.4895,-2.4898,-2.4979,-2.4982,-2.4984,-2.4985,0,-2.5126,-2.5101,-2.5106,-2.5104,-2.5108,-2.5104,-2.5096,-2.5106,-2.5044,-2.5054,-2.5066,-2.5068,-2.5074,-2.5083,-2.508,-2.5065,-2.5016,-2.5008,-2.5022,-2.5039,-2.5056,-2.5049,-2.4826,-2.5004,-2.5002,-2.5001,-2.5,-2.4999,-2.5258,-2.5282,-2.5259,-2.5267,-2.5255,-2.5248,-2.5267,-2.5237,-2.5246,-2.5245,-2.5211,-2.523,-2.5212,-2.5203,-2.5193,-2.5208,-2.5175,-2.5195,-2.52,-2.5206,-2.5217,-2.5053,-2.5208,-2.5207,-2.5206,-2.5206,-2.5205,0,-2.5427,-2.5408,-2.5417,-2.5407,-2.5414,-2.5365,-2.5354,-2.5363,-2.5381,-2.5367,-2.5371,-2.5386,-2.5395,-2.5361,-2.5365,-2.5384,-2.5362,-2.5388,-2.5386,-2.5384,-2.5246,-2.5234,-2.5406,-2.5406,-2.5406,-2.5406,-2.5405,-2.5405,-2.5516,-2.5554,-2.5527,-2.5559,-2.554,-2.5558,-2.5556,-2.555,-2.5539,-2.5558,-2.5564,-2.5542,-2.5521,-2.5523,-2.553,-2.552,-2.5525,-2.5559,-2.5542,-2.5413,-2.5394,-2.5375,-2.5364,-2.556,-2.556,-2.5679,-2.568,-2.5681]},{"header":{"parameterUnit":"m.s-1","parameterCategory":1,"la1":30.2991,"la2":30.254,"lo1":-89.0895,"lo2":-89.0444,"dy":0.0017,"dx":0.0017,"nx":28,"ny":28,"refTime":"2025-09-08T03:00:00:Z","depth":0,"parameterNumber":3,"parameterNumberName":"V-component_of_WINDS"},"data":[0,0,0,0,0,0,0,0,0,0,0,0,0,0,0,0,0,0,0,0,0,0,0,0,0,0,0,0,0,0,0,0,0,0,0,0,0,0,0,0,0,0,0,0,0,0,0,0,0,0,0,0,0,0,0,0,0,0,0.0309,0.0308,0,0.0285,0.0285,0.0285,0.0268,0.0267,0.0267,0.0267,0.0245,0.0244,0.0244,0,0,0,0,0,0,0,0,0,0,0,0,0,0.0341,0.0341,0.0309,0.0308,0.0308,0.0285,0.0285,0.0285,0.0268,0.0267,0.0267,0.0267,0.0245,0.0244,0.0244,0,0,0,0,0,0,0,0,0,0,0,0,0,0.0323,0.034,0.0309,0.0297,0.0295,0.0285,0.0285,0.0284,0.0268,0.0267,0.0267,0.0267,0.0245,0.0245,0.0244,0.0244,0,0,0.0242,0.0241,0,0,0,0,0,0,0,0,0.0324,0.0322,0.0299,0.0298,0.0296,0.0279,0.0288,0.0271,0.0268,0.0278,0.0267,0.0267,0.0257,0.0255,0.0251,0.0243,0.0242,0.0242,0.0241,0.0241,0.0241,0,0,0,0,0,0,0,0.0326,0.0323,0.0299,0.0298,0.0297,0.0293,0.0291,0.0285,0.0269,0.0277,0.0276,0.0273,0.0256,0.0252,0.025,0.0242,0.0242,0.0241,0.0241,0.024,0.0234,0.0234,0,0,0,0,0,0,0.0328,0.0324,0.03,0.0299,0.031,0.0293,0.029,0.0285,0.0269,0.0266,0.0274,0.0273,0.0253,0.0251,0.025,0.0249,0.0241,0.024,0.024,0.0234,0.0234,0.0234,0,0,0,0,0,0,0.0329,0.0326,0.0301,0.0311,0.0308,0.0293,0.0287,0.0284,0.028,0.0266,0.0263,0.0272,0.0253,0.0251,0.0246,0.0248,0.024,0.0239,0.0234,0.0234,0.0234,0.0248,0,0,0,0,0,0,0.033,0.0327,0.0326,0.0311,0.0307,0.0297,0.0287,0.0284,0.0279,0.0278,0.0264,0.0262,0.0252,0.0247,0.0245,0.0247,0.0239,0.0233,0.0234,0.0234,0.0247,0.0249,0.025,0,0,0,0,0,0.0331,0.0331,0.0326,0.0323,0.0306,0.0297,0.0295,0.0283,0.0279,0.0279,0.027,0.0262,0.0248,0.0246,0.0244,0.0246,0.0233,0.0234,0.0234,0.0247,0.0249,0.025,0,0,0,0,0,0,0.0347,0.0329,0.0323,0.0318,0.0309,0.0294,0.0293,0.0286,0.0278,0.0277,0.0264,0.0262,0.0258,0.0252,0.025,0.0246,0.024,0.024,0.025,0.0252,0.0253,0.0254,0.0238,0,0,0,0,0,0.035,0.0343,0.0328,0.0325,0.0321,0.0308,0.0304,0.0296,0.0286,0.0283,0.0273,0.0265,0.0259,0.0255,0.0249,0.0247,0.0244,0.0247,0.0248,0.025,0.025,0.0249,0.025,0.0236,0.0236,0.0236,0,0,0.0355,0.0345,0.0342,0.0328,0.032,0.0315,0.0305,0.0299,0.0295,0.0282,0.0277,0.027,0.026,0.0257,0.0255,0.0251,0.0253,0.025,0.0251,0.0251,0.0249,0.0251,0.0252,0.0236,0.0236,0.0236,0,0,0.0363,0.0354,0.0351,0.0343,0.0332,0.0323,0.0322,0.0309,0.0303,0.0298,0.0288,0.0284,0.0273,0.0267,0.0262,0.0268,0.0261,0.0267,0.0274,0.0273,0.0274,0.0275,0.0277,0.0278,0.0267,0.0267,0.0267,0,0.0371,0.0362,0.035,0.0345,0.034,0.0327,0.0324,0.0318,0.0305,0.0302,0.0298,0.0285,0.0278,0.0273,0.0275,0.0271,0.0271,0.0268,0.0275,0.0276,0.0276,0.0278,0.0279,0.0268,0.0268,0.0268,0.0268,0,0.0373,0.0367,0.0366,0.0353,0.0348,0.0344,0.0332,0.0329,0.0322,0.0314,0.0309,0.03,0.0291,0.029,0.0283,0.0285,0.0283,0.0277,0.027,0.0279,0.028,0.0281,0.0269,0.0269,0.0268,0.0268,0,0,0.0388,0.037,0.037,0.0364,0.0351,0.0346,0.0343,0.0334,0.0331,0.0323,0.032,0.0312,0.0307,0.0302,0.0295,0.0294,0.03,0.0289,0.0288,0.0291,0.0301,0.0305,0.0306,0.0295,0.0296,0.0296,0.0302,0,0.0393,0.0385,0.0374,0.037,0.0364,0.0353,0.035,0.0342,0.0336,0.0331,0.0323,0.0318,0.0311,0.0308,0.0307,0.0299,0.0302,0.0299,0.0293,0.0292,0.0295,0.0307,0.031,0.0317,0.0302,0.0302,0.0303,0,0.0398,0.039,0.0384,0.0373,0.037,0.0367,0.0359,0.0354,0.0346,0.0341,0.0335,0.0328,0.0324,0.0319,0.0314,0.0312,0.0309,0.0305,0.0305,0.0304,0.0297,0.0305,0.0318,0.0319,0.0304,0.0303,0.0303,0,0.0409,0.0398,0.0393,0.0389,0.0375,0.0373,0.0367,0.0358,0.0354,0.0348,0.0345,0.0338,0.0334,0.033,0.0321,0.0318,0.0317,0.0311,0.0313,0.0313,0.0313,0.0313,0.0325,0.0312,0.0312,0.0312,0.0312,0,0.0415,0.0412,0.0398,0.0395,0.0392,0.0381,0.0378,0.0372,0.0364,0.036,0.0351,0.0348,0.0337,0.0333,0.0326,0.0323,0.0321,0.0318,0.0316,0.0318,0.0319,0.0315,0.0315,0.0312,0.0312,0.0312,0.0312,0,0.0427,0.0417,0.0411,0.0399,0.0396,0.0394,0.0384,0.0381,0.0374,0.0369,0.0368,0.0357,0.0352,0.0343,0.0335,0.033,0.0329,0.0326,0.0331,0.033,0.0333,0.0333,0.0343,0.0344,0.0331,0.0331,0.0331,0,0.0431,0.0429,0.0416,0.0413,0.0407,0.0402,0.0398,0.0388,0.0384,0.0374,0.0373,0.0367,0.0361,0.0354,0.0345,0.034,0.0336,0.0341,0.0335,0.0338,0.0336,0.0336,0.0336,0.0341,0.0342,0.0342,0.0342,0,0.044,0.0435,0.0429,0.0422,0.0417,0.0411,0.0404,0.0402,0.039,0.0387,0.0381,0.0377,0.0369,0.0363,0.0356,0.0351,0.0345,0.0344,0.0344,0.0346,0.0349,0.0347,0.0334,0.0343,0.0343,0.0343,0.0343,0.0343,0.0448,0.0445,0.0436,0.043,0.0424,0.0418,0.0415,0.0408,0.0403,0.0395,0.039,0.0385,0.0377,0.0367,0.0363,0.0359,0.0356,0.0357,0.0356,0.0357,0.0357,0.035,0.0358,0.0358,0.0358,0.0358,0.0358,0,0.0456,0.045,0.0444,0.0435,0.043,0.0425,0.0417,0.0414,0.0409,0.0403,0.0398,0.0392,0.0386,0.0378,0.0373,0.0371,0.0368,0.037,0.037,0.0369,0.0361,0.0361,0.0373,0.0373,0.0373,0.0373,0.0373,0.0373,0.0459,0.0455,0.0449,0.0442,0.0436,0.0431,0.0427,0.0422,0.0417,0.041,0.0406,0.04,0.0394,0.0387,0.0383,0.038,0.0379,0.0381,0.0378,0.0371,0.0369,0.0368,0.0368,0.0381,0.0381,0.0387,0.0387,0.0387]}]]